Вернуться в каталог

STARLINK-35127

АктивенСвязьVLEO
NORAD 65639·PAYLOAD·🇺🇸 United States

Запущен Sep 18, 2025 с Cape Canaveral Space Force Station

Loading…

Ближайшие Пролёты (ближайшие 24 часа)

TLE

СвежийSource: CelesTrak SupGP

Эпоха: Sep 14, 2026, 20:53 UTC

1 65639C 25210T   26257.87062500 -.00044215  00000+0 -13062-2 0  2577
2 65639  53.1566 143.9500 0001276  85.1347  60.0248 15.34415815    11

Отслеживайте STARLINK-35127 в реальном времени с AllMySat

Download on the App Store